Simultaneous Nadir Overpasses (SNOs) Predictions

Prediction of SNOs between METOP-B and NOAA-19 Satellite Orbit:

Table of predicted SNOs for the next 14.0 days since TLE Epoch: 12/25/2021
Index Date (METOP-B) Time (METOP-B) Lat,Lon (METOP-B) SZA (METOP-B ) Date (NOAA-19) Time (NOAA-19) Lat,Lon (NOAA-19) SZA (NOAA-19 ) Distance(km) Time Diff (sec)
1 12/28/2021 20:03:43 -80.74, 90.55 74.83 12/28/2021 20:02:36 -80.73, 90.54 74.86 1.10 67
2 12/28/2021 20:54:24 80.73,-102.15 105.17 12/28/2021 20:53:33 80.73,-102.29 105.14 2.48 51
3 12/28/2021 21:45:05 -80.73, 65.05 74.85 12/28/2021 21:44:36 -80.72, 65.09 74.86 0.76 29
4 12/28/2021 22:35:46 80.73,-127.65 105.15 12/28/2021 22:35:33 80.73,-127.73 105.14 1.50 13
5 12/28/2021 23:26:27 -80.72, 39.56 74.88 12/28/2021 23:26:36 -80.72, 39.65 74.86 1.68 9
6 12/29/2021 00:17:08 80.72,-153.14 105.12 12/29/2021 00:17:33 80.73,-153.17 105.14 1.29 25
7 12/29/2021 01:07:49 -80.71, 14.07 74.90 12/29/2021 01:08:36 -80.72, 14.20 74.86 2.82 47



Historial Predications of SNOs between METOP-B and NOAA-19
